Погода в Колине

Чехия     50°01′26″N   15°11′54″E
темп.,
°C
ветер,
м/с
пор.,
м/с
влажн.,
%
обл.,
%
осадки,
мм/ч
давл.,
гПа
погр.,
м
24 сентября, пт
пт2423:00+17зюз8165881 0.0 1012807
02:00+16з8146467 0.0 10121015
05:00+15зсз7147279 0.1 10121263
08:00+14зсз6127676 0.3 10141097
11:00+17зсз71150100 0.0 10151401
14:00+20зсз9124859 0.0 10151740
17:00+18зсз6106081 0.0 10151366
20:00+16з3770100 0.0 1017313
25 сентября, сб
сб2523:00+16зюз3776100 0.0 1017264
02:00+16зюз497792 0.0 1017328
05:00+13юз39871 0.0 1017220
08:00+14юз39840 0.0 1018292
11:00+19з56600 0.0 1018905
14:00+22з34491 0.0 10181367
17:00+22з23490 0.0 10171348
20:00+17ююз22685 0.0 101811
26 сентября, вс
вс2623:00+15ю227554 0.0 101911
02:00+14ююв127994 0.0 101911
05:00+13вюв128517 0.0 101914
08:00+14ююв11795 0.0 102025
11:00+21юв345269 0.0 1019624
14:00+25ююв4442100 0.0 10171159
17:00+24юв44474 0.0 1016741
20:00+18ююв33694 0.0 101729
27 сентября, пн
пн2723:00+16юв22775 0.0 101716
02:00+15ююв228193 0.0 101713
05:00+14юв118394 0.0 101711
08:00+15ююз128082 0.0 101745
11:00+20зсз336194 0.0 1018648
14:00+20з3363100 0.3 1018856
17:00+17ююз3488100 2.1 1019139
20:00+16юз3496100 8.6 1020124
28 сентября, вт
вт2823:00+16з2393100 2.4 102160
02:00+14з3594100 2.6 1022140
05:00+13з3795100 0.0 1022216
08:00+14сз4893100 0.0 1023469
11:00+14сз4688100 0.0 1024386
14:00+17ссз337659 0.0 1023651
17:00+18ссв226984 0.1 1021812
20:00+15в2587100 0.2 1021186